Location: Oberwangen
(47.4286°N, 8.9679°E)
Time: 15:26:13
(UTC+00:00)

Cosmos 1992 Rocket - Pass Details

Date: 20 June 2021
Orbit: 758 x 766 km, 74.0° (Epoch: 03 August)

Event Time Altitude Azimuth Distance (km) Brightness Sun altitude
Exits shadow 21:37:54 18° 188° (S) 1,814 5.5 -15.1°
Maximum altitude 21:41:48 69° 109° (ESE) 819 4.0 -15.4°
Drops below altitude 10° 21:47:00 10° 27° (NNE) 2,310 7.0 -15.7°
Sets 21:49:23 0° 25° (NNE) 3,241 7.9 -15.9°
